When you browse on this site, cookies collect data to enhance your experience and personalize the content and advertising you see.
Visit our Privacy Policy to learn more. By continuing to use the site, you agree to this use of cookies and data.

Tiempo cada hora Trashigang

Hoy, 13 Agosto, Jueves

Tiempo Temperatura Precipitaciones Viento Presión Humedad
00:00 +19°C° 0 mm 0 mps 625 mmHg 95%
01:00 +21°C° 0.1 mm 1 mps 625 mmHg 95%
02:00 +21°C° 0.1 mm 1 mps 624 mmHg 95%
03:00 +21°C° 0.1 mm 1 mps 624 mmHg 94%
04:00 +21°C° 0 mm 1 mps 624 mmHg 94%
05:00 +21°C° 0 mm 1 mps 624 mmHg 93%
06:00 +21°C° 0 mm 1 mps 624 mmHg 92%
07:00 +23°C° 0 mm 1 mps 625 mmHg 85%
08:00 +25°C° 0 mm 1 mps 626 mmHg 79%
09:00 +27°C° 0 mm 1 mps 627 mmHg 72%
10:00 +27°C° 0.4 mm 2 mps 626 mmHg 74%
11:00 +27°C° 0.4 mm 2 mps 626 mmHg 76%
12:00 +28°C° 0.4 mm 2 mps 625 mmHg 78%
13:00 +27°C° 0.8 mm 2 mps 625 mmHg 80%
14:00 +27°C° 0.8 mm 2 mps 624 mmHg 83%
15:00 +27°C° 0.8 mm 2 mps 623 mmHg 85%
16:00 +26°C° 0.7 mm 1 mps 623 mmHg 89%
17:00 +25°C° 0.7 mm 1 mps 623 mmHg 93%
18:00 +24°C° 0.7 mm 1 mps 623 mmHg 97%
19:00 +23°C° 0.3 mm 1 mps 623 mmHg 97%
20:00 +21°C° 0.3 mm 0 mps 624 mmHg 97%
21:00 +20°C° 0.3 mm 0 mps 624 mmHg 97%
22:00 +20°C° 0.2 mm 0 mps 624 mmHg 96%
23:00 +20°C° 0.2 mm 0 mps 624 mmHg 95%

Mañana, 14 Agosto, Viernes

Tiempo Temperatura Precipitaciones Viento Presión Humedad
00:00 +20°C° 0.2 mm 0 mps 624 mmHg 95%
01:00 +20°C° 0.2 mm 0 mps 624 mmHg 95%
02:00 +20°C° 0.2 mm 0 mps 623 mmHg 95%
03:00 +19°C° 0.2 mm 0 mps 623 mmHg 96%
04:00 +19°C° 0.1 mm 0 mps 623 mmHg 96%
05:00 +19°C° 0.1 mm 0 mps 623 mmHg 96%
06:00 +20°C° 0.1 mm 0 mps 623 mmHg 96%
07:00 +21°C° 0.2 mm 0 mps 624 mmHg 93%
08:00 +24°C° 0.2 mm 1 mps 625 mmHg 91%
09:00 +25°C° 0.2 mm 1 mps 625 mmHg 88%
10:00 +25°C° 1.1 mm 1 mps 625 mmHg 90%
11:00 +25°C° 1.1 mm 2 mps 624 mmHg 91%
12:00 +25°C° 1.1 mm 2 mps 624 mmHg 92%
13:00 +25°C° 0.9 mm 2 mps 623 mmHg 92%
14:00 +25°C° 0.9 mm 1 mps 623 mmHg 91%
15:00 +25°C° 0.9 mm 1 mps 622 mmHg 91%
16:00 +24°C° 0.4 mm 1 mps 622 mmHg 93%
17:00 +24°C° 0.4 mm 1 mps 622 mmHg 95%
18:00 +23°C° 0.4 mm 1 mps 622 mmHg 97%
19:00 +23°C° 0.2 mm 1 mps 622 mmHg 97%
20:00 +20°C° 0.2 mm 0 mps 623 mmHg 97%
21:00 +20°C° 0.2 mm 0 mps 623 mmHg 98%
22:00 +20°C° 0.1 mm 0 mps 623 mmHg 97%
23:00 +20°C° 0.1 mm 0 mps 623 mmHg 96%

Pasado mañana, 15 Agosto, Sábado

Tiempo Temperatura Precipitaciones Viento Presión Humedad
00:00 +19°C° 0.1 mm 0 mps 623 mmHg 95%
01:00 +19°C° 0.1 mm 0 mps 623 mmHg 95%
02:00 +19°C° 0.1 mm 0 mps 622 mmHg 95%
03:00 +19°C° 0.1 mm 0 mps 622 mmHg 95%
04:00 +19°C° 0 mm 0 mps 622 mmHg 95%
05:00 +19°C° 0 mm 0 mps 622 mmHg 95%
06:00 +19°C° 0 mm 0 mps 622 mmHg 94%
07:00 +20°C° 0 mm 0 mps 623 mmHg 91%
08:00 +22°C° 0 mm 0 mps 623 mmHg 88%
09:00 +23°C° 0 mm 0 mps 624 mmHg 85%
10:00 +25°C° 0.7 mm 1 mps 624 mmHg 83%
11:00 +26°C° 0.7 mm 1 mps 624 mmHg 81%
12:00 +27°C° 0.7 mm 2 mps 623 mmHg 80%
13:00 +27°C° 1.4 mm 2 mps 623 mmHg 84%
14:00 +26°C° 1.4 mm 2 mps 622 mmHg 88%
15:00 +25°C° 1.4 mm 2 mps 622 mmHg 93%
16:00 +24°C° 1 mm 1 mps 622 mmHg 94%
17:00 +24°C° 1 mm 1 mps 622 mmHg 96%
18:00 +23°C° 1 mm 1 mps 622 mmHg 98%
19:00 +21°C° 0.6 mm 0 mps 623 mmHg 97%
20:00 +21°C° 0.6 mm 0 mps 623 mmHg 96%
21:00 +20°C° 0.6 mm 0 mps 624 mmHg 96%
22:00 +20°C° 0.6 mm 0 mps 624 mmHg 97%
23:00 +20°C° 0.6 mm 0 mps 624 mmHg 97%

16 Agosto, Domingo

Tiempo Temperatura Precipitaciones Viento Presión Humedad
00:00 +20°C° 0.6 mm 0 mps 624 mmHg 98%
01:00 +20°C° 1.6 mm 0 mps 624 mmHg 98%
02:00 +20°C° 1.6 mm 0 mps 623 mmHg 98%
03:00 +20°C° 1.6 mm 0 mps 623 mmHg 99%
04:00 +20°C° 2.3 mm 0 mps 623 mmHg 98%
05:00 +20°C° 2.3 mm 0 mps 623 mmHg 98%
06:00 +20°C° 2.3 mm 0 mps 623 mmHg 98%
07:00 +20°C° 0.8 mm 0 mps 624 mmHg 97%
08:00 +21°C° 0.8 mm 0 mps 624 mmHg 96%
09:00 +21°C° 0.8 mm 0 mps 625 mmHg 94%
10:00 +22°C° 0.4 mm 0 mps 625 mmHg 90%
11:00 +23°C° 0.4 mm 0 mps 625 mmHg 86%
12:00 +24°C° 0.4 mm 0 mps 625 mmHg 82%
13:00 +26°C° 0.7 mm 1 mps 624 mmHg 83%
14:00 +26°C° 0.7 mm 1 mps 624 mmHg 84%
15:00 +26°C° 0.7 mm 2 mps 623 mmHg 86%
16:00 +25°C° 0.8 mm 1 mps 623 mmHg 90%
17:00 +24°C° 0.8 mm 1 mps 622 mmHg 94%
18:00 +23°C° 0.8 mm 1 mps 622 mmHg 99%
19:00 +23°C° 0.5 mm 1 mps 623 mmHg 98%
20:00 +21°C° 0.5 mm 0 mps 623 mmHg 98%
21:00 +20°C° 0.5 mm 0 mps 624 mmHg 98%
22:00 +20°C° 0.3 mm 0 mps 624 mmHg 97%
23:00 +20°C° 0.3 mm 0 mps 624 mmHg 97%

17 Agosto, Lunes

Tiempo Temperatura Precipitaciones Viento Presión Humedad
00:00 +20°C° 0.3 mm 0 mps 623 mmHg 97%
01:00 +20°C° 0.2 mm 0 mps 623 mmHg 97%
02:00 +19°C° 0.2 mm 0 mps 623 mmHg 96%
03:00 +19°C° 0.2 mm 0 mps 623 mmHg 96%
04:00 +19°C° 0.1 mm 0 mps 623 mmHg 96%
05:00 +19°C° 0.1 mm 0 mps 623 mmHg 96%
06:00 +19°C° 0.1 mm 0 mps 623 mmHg 96%
07:00 +20°C° 0.4 mm 0 mps 624 mmHg 96%
08:00 +20°C° 0.4 mm 0 mps 624 mmHg 95%
09:00 +23°C° 0.4 mm 1 mps 625 mmHg 95%
10:00 +23°C° 0.5 mm 1 mps 625 mmHg 92%
11:00 +24°C° 0.5 mm 1 mps 624 mmHg 89%
12:00 +25°C° 0.5 mm 1 mps 624 mmHg 87%
13:00 +25°C° 0.3 mm 1 mps 624 mmHg 85%
14:00 +25°C° 0.3 mm 1 mps 623 mmHg 84%
15:00 +26°C° 0.3 mm 1 mps 623 mmHg 82%
16:00 +25°C° 0.3 mm 1 mps 623 mmHg 87%
17:00 +24°C° 0.3 mm 1 mps 623 mmHg 91%
18:00 +23°C° 0.3 mm 1 mps 622 mmHg 96%
19:00 +23°C° 0.5 mm 1 mps 623 mmHg 97%
20:00 +20°C° 0.5 mm 0 mps 623 mmHg 97%
21:00 +20°C° 0.5 mm 0 mps 624 mmHg 98%
22:00 +20°C° 0.6 mm 0 mps 624 mmHg 97%
23:00 +20°C° 0.6 mm 0 mps 624 mmHg 97%

18 Agosto, Martes

Tiempo Temperatura Precipitaciones Viento Presión Humedad
00:00 +20°C° 0.6 mm 0 mps 624 mmHg 97%
01:00 +19°C° 0.7 mm 0 mps 624 mmHg 97%
02:00 +19°C° 0.7 mm 0 mps 624 mmHg 97%
03:00 +19°C° 0.7 mm 0 mps 623 mmHg 97%
04:00 +19°C° 0.1 mm 0 mps 623 mmHg 97%
05:00 +19°C° 0.1 mm 0 mps 623 mmHg 97%
06:00 +19°C° 0.1 mm 0 mps 624 mmHg 97%
07:00 +20°C° 0.1 mm 0 mps 624 mmHg 93%
08:00 +22°C° 0.1 mm 0 mps 625 mmHg 89%
09:00 +23°C° 0.1 mm 0 mps 626 mmHg 85%
10:00 +26°C° 0.9 mm 1 mps 625 mmHg 85%
11:00 +26°C° 0.9 mm 1 mps 625 mmHg 85%
12:00 +27°C° 0.9 mm 2 mps 625 mmHg 85%
13:00 +26°C° 1.3 mm 2 mps 624 mmHg 86%
14:00 +26°C° 1.3 mm 2 mps 623 mmHg 88%
15:00 +26°C° 1.3 mm 1 mps 623 mmHg 89%
16:00 +25°C° 0.6 mm 1 mps 623 mmHg 92%
17:00 +24°C° 0.6 mm 1 mps 623 mmHg 94%
18:00 +22°C° 0.6 mm 0 mps 623 mmHg 96%
19:00 +21°C° 0.5 mm 0 mps 623 mmHg 97%
20:00 +20°C° 0.5 mm 0 mps 624 mmHg 97%
21:00 +20°C° 0.5 mm 0 mps 624 mmHg 97%
22:00 +20°C° 0.6 mm 0 mps 624 mmHg 96%
23:00 +19°C° 0.6 mm 0 mps 624 mmHg 96%
Mostrar más